| time (UTC) | temp F | wind direction | speed MPH | gust MPH | rain 1hr in | rain 24hr in | rain mn in | humidity % | barometer mb |
| 20260831080008 | 77 | 154 | 0.0 | 3.0 | 0.00 | 0.00 | 0.00 | 86 | 1013.7 |
| 20260831074528 | 77 | 160 | 1.0 | 4.0 | 0.00 | 0.00 | 0.00 | 86 | 1013.7 |
| 20260831073049 | 78 | 148 | 1.0 | 3.0 | 0.00 | 0.00 | 0.00 | 86 | 1013.6 |
| 20260831071611 | 78 | 151 | 1.0 | 3.0 | 0.00 | 0.00 | 0.00 | 85 | 1013.6 |
| 20260831070020 | 78 | 160 | 1.0 | 5.0 | 0.00 | 0.00 | 0.00 | 85 | 1013.7 |
| 20260831064532 | 79 | 155 | 2.0 | 8.0 | 0.00 | 0.00 | 0.00 | 84 | 1013.7 |
| 20260831063049 | 79 | 148 | 4.0 | 7.0 | 0.00 | 0.00 | 0.00 | 84 | 1013.7 |
| 20260831061504 | 79 | 160 | 3.0 | 7.0 | 0.00 | 0.00 | 0.00 | 83 | 1013.8 |
| 20260831060015 | 79 | 193 | 2.0 | 7.0 | 0.00 | 0.00 | 0.00 | 82 | 1013.7 |
| 20260831054537 | 80 | 145 | 5.0 | 10.0 | 0.00 | 0.00 | 0.00 | 82 | 1013.6 |
| 20260831053114 | 80 | 177 | 4.0 | 10.0 | 0.00 | 0.00 | 0.00 | 81 | 1013.6 |
| 20260831051510 | 80 | 160 | 4.0 | 12.0 | 0.00 | 0.00 | 0.00 | 79 | 1013.5 |
| 20260831050030 | 81 | 153 | 6.0 | 12.0 | 0.00 | 0.00 | 0.00 | 78 | 1013.4 |
| 20260831044548 | 81 | 158 | 6.0 | 15.0 | 0.00 | 0.00 | 0.00 | 76 | 1013.4 |
| 20260831043103 | 82 | 150 | 8.0 | 13.0 | 0.00 | 0.00 | 0.00 | 73 | 1013.3 |
| 20260831041529 | 83 | 140 | 8.0 | 13.0 | 0.00 | 0.00 | 0.00 | 70 | 1013.2 |
| 20260831040050 | 83 | 130 | 6.0 | 11.0 | 0.00 | 0.00 | 0.00 | 68 | 1013.1 |
| 20260831034532 | 84 | 139 | 8.0 | 14.0 | 0.00 | 0.00 | 0.00 | 66 | 1013.0 |
| 20260831033105 | 84 | 143 | 8.0 | 13.0 | 0.00 | 0.00 | 0.00 | 63 | 1012.8 |
| 20260831031516 | 85 | 153 | 6.0 | 10.0 | 0.00 | 0.00 | 0.00 | 60 | 1012.8 |
| 20260831030047 | 86 | 185 | 5.0 | 11.0 | 0.00 | 0.00 | 0.00 | 58 | 1012.6 |
| 20260831024526 | 86 | 153 | 5.0 | 10.0 | 0.00 | 0.00 | 0.00 | 57 | 1012.2 |
| 20260831023040 | 87 | 141 | 7.0 | 13.0 | 0.00 | 0.00 | 0.00 | 56 | 1011.8 |
| 20260831021605 | 87 | 158 | 6.0 | 13.0 | 0.00 | 0.00 | 0.00 | 55 | 1011.5 |
| 20260831020012 | 88 | 162 | 5.0 | 11.0 | 0.00 | 0.00 | 0.00 | 55 | 1011.3 |
| 20260831014530 | 88 | 141 | 5.0 | 10.0 | 0.00 | 0.00 | 0.00 | 55 | 1011.2 |
| 20260831013055 | 89 | 158 | 5.0 | 11.0 | 0.00 | 0.00 | 0.00 | 54 | 1011.0 |
| 20260831011506 | 90 | 154 | 8.0 | 13.0 | 0.00 | 0.00 | 0.00 | 54 | 1010.9 |
| 20260831010023 | 90 | 141 | 7.0 | 13.0 | 0.00 | 0.00 | 0.00 | 53 | 1010.7 |
| 20260831004524 | 91 | 125 | 7.0 | 12.0 | 0.00 | 0.00 | 0.00 | 51 | 1010.6 |
| 20260831003041 | 93 | 135 | 6.0 | 12.0 | 0.00 | 0.00 | 0.00 | 48 | 1010.3 |
| 20260831001555 | 94 | 152 | 5.0 | 12.0 | 0.00 | 0.00 | 0.00 | 46 | 1010.3 |
| 20260831000012 | 95 | 155 | 8.0 | 13.0 | 0.00 | 0.00 | 0.00 | 45 | 1010.2 |
| 20260830234554 | 94 | 152 | 5.0 | 10.0 | 0.00 | 0.00 | 0.00 | 45 | 1010.1 |
| 20260830233007 | 96 | 129 | 5.0 | 13.0 | 0.00 | 0.00 | 0.00 | 43 | 1010.1 |
| 20260830231523 | 98 | 162 | 5.0 | 11.0 | 0.00 | 0.00 | 0.00 | 40 | 1010.0 |
| 20260830230048 | 98 | 139 | 4.0 | 12.0 | 0.00 | 0.00 | 0.00 | 39 | 1010.0 |
| 20260830224607 | 99 | 142 | 3.0 | 11.0 | 0.00 | 0.00 | 0.00 | 37 | 1010.0 |
| 20260830223050 | 99 | 160 | 5.0 | 9.0 | 0.00 | 0.00 | 0.00 | 37 | 1010.1 |
| 20260830221517 | 99 | 117 | 6.0 | 11.0 | 0.00 | 0.00 | 0.00 | 36 | 1010.2 |
| 20260830220044 | 98 | 143 | 2.0 | 11.0 | 0.00 | 0.00 | 0.00 | 38 | 1010.2 |
| 20260830214606 | 97 | 159 | 3.0 | 10.0 | 0.00 | 0.00 | 0.00 | 38 | 1010.3 |
| 20260830213018 | 98 | 152 | 4.0 | 12.0 | 0.00 | 0.00 | 0.00 | 38 | 1010.6 |
| 20260830211537 | 98 | 153 | 4.0 | 10.0 | 0.00 | 0.00 | 0.00 | 38 | 1011.0 |
| 20260830210058 | 98 | 130 | 5.0 | 10.0 | 0.00 | 0.00 | 0.00 | 38 | 1011.3 |
| 20260830204503 | 98 | 154 | 2.0 | 11.0 | 0.00 | 0.00 | 0.00 | 38 | 1011.3 |
| 20260830203024 | 97 | 133 | 2.0 | 9.0 | 0.00 | 0.00 | 0.00 | 40 | 1011.6 |
| 20260830201539 | 97 | 129 | 3.0 | 10.0 | 0.00 | 0.00 | 0.00 | 41 | 1012.1 |
| 20260830200113 | 96 | 167 | 2.0 | 10.0 | 0.00 | 0.00 | 0.00 | 43 | 1012.3 |
| 20260830194510 | 94 | 158 | 3.0 | 11.0 | 0.00 | 0.00 | 0.00 | 45 | 1012.6 |
| 20260830193031 | 96 | 155 | 3.0 | 9.0 | 0.00 | 0.00 | 0.00 | 44 | 1012.9 |
| 20260830191525 | 95 | 80 | 4.0 | 7.0 | 0.00 | 0.00 | 0.00 | 44 | 1013.1 |
| 20260830190044 | 96 | 141 | 2.0 | 10.0 | 0.00 | 0.00 | 0.00 | 46 | 1013.3 |
| 20260830184601 | 93 | 146 | 3.0 | 13.0 | 0.00 | 0.00 | 0.00 | 49 | 1013.5 |
| 20260830183018 | 94 | 148 | 5.0 | 11.0 | 0.00 | 0.00 | 0.00 | 47 | 1013.9 |
| 20260830181533 | 94 | 138 | 2.0 | 9.0 | 0.00 | 0.00 | 0.00 | 47 | 1014.1 |
| 20260830180053 | 93 | 164 | 8.0 | 12.0 | 0.00 | 0.00 | 0.00 | 49 | 1014.3 |
| 20260830174512 | 93 | 138 | 5.0 | 10.0 | 0.00 | 0.00 | 0.00 | 50 | 1014.5 |
| 20260830173018 | 93 | 143 | 3.0 | 10.0 | 0.00 | 0.00 | 0.00 | 51 | 1014.7 |
| 20260830171532 | 92 | 124 | 5.0 | 10.0 | 0.00 | 0.00 | 0.00 | 54 | 1015.0 |
| 20260830170052 | 91 | 169 | 5.0 | 11.0 | 0.00 | 0.00 | 0.00 | 53 | 1015.0 |
| 20260830164602 | 91 | 146 | 3.0 | 8.0 | 0.00 | 0.00 | 0.00 | 56 | 1015.1 |
| 20260830163023 | 89 | 157 | 4.0 | 10.0 | 0.00 | 0.00 | 0.00 | 58 | 1015.2 |
| 20260830161550 | 88 | 132 | 3.0 | 9.0 | 0.00 | 0.00 | 0.00 | 64 | 1015.2 |
| 20260830160055 | 87 | 181 | 3.0 | 9.0 | 0.00 | 0.00 | 0.00 | 66 | 1015.3 |
| 20260830154506 | 86 | 172 | 3.0 | 9.0 | 0.00 | 0.00 | 0.00 | 70 | 1015.5 |
| 20260830153040 | 86 | 127 | 4.0 | 9.0 | 0.00 | 0.00 | 0.00 | 71 | 1015.4 |
| 20260830151546 | 85 | 143 | 5.0 | 9.0 | 0.00 | 0.00 | 0.00 | 71 | 1015.4 |
| 20260830150112 | 85 | 150 | 3.0 | 8.0 | 0.00 | 0.00 | 0.00 | 75 | 1015.3 |
| 20260830144515 | 84 | 146 | 4.0 | 10.0 | 0.00 | 0.00 | 0.00 | 77 | 1015.3 |
| 20260830143024 | 83 | 171 | 2.0 | 5.0 | 0.00 | 0.00 | 0.00 | 80 | 1015.3 |
| 20260830141538 | 81 | 145 | 2.0 | 5.0 | 0.00 | 0.00 | 0.00 | 84 | 1015.3 |
| 20260830140101 | 80 | 175 | 0.0 | 3.0 | 0.00 | 0.00 | 0.00 | 84 | 1015.3 |
| 20260830134516 | 79 | 155 | 0.0 | 3.0 | 0.00 | 0.00 | 0.00 | 85 | 1015.2 |
| 20260830133031 | 78 | 151 | 0.0 | 2.0 | 0.00 | 0.00 | 0.00 | 86 | 1015.2 |
| 20260830131602 | 76 | 161 | 0.0 | 2.0 | 0.00 | 0.00 | 0.00 | 86 | 1014.9 |
| 20260830130002 | 74 | 177 | 0.0 | 1.0 | 0.00 | 0.00 | 0.00 | 88 | 1014.8 |
| 20260830124528 | 73 | 145 | 0.0 | 0.0 | 0.00 | 0.00 | 0.00 | 88 | 1014.7 |
| 20260830123050 | 72 | 150 | 0.0 | 0.0 | 0.00 | 0.00 | 0.00 | 88 | 1014.6 |
| 20260830121522 | 73 | 155 | 0.0 | 0.0 | 0.00 | 0.00 | 0.00 | 88 | 1014.5 |
| 20260830120030 | 73 | 174 | 0.0 | 0.0 | 0.00 | 0.00 | 0.00 | 88 | 1014.5 |
| 20260830114550 | 73 | 147 | 0.0 | 0.0 | 0.00 | 0.00 | 0.00 | 88 | 1014.4 |
| 20260830113005 | 73 | 153 | 0.0 | 0.0 | 0.00 | 0.00 | 0.00 | 88 | 1014.5 |
| 20260830111525 | 73 | 139 | 0.0 | 0.0 | 0.00 | 0.00 | 0.00 | 88 | 1014.5 |
| 20260830110041 | 73 | 153 | 0.0 | 0.0 | 0.00 | 0.00 | 0.00 | 88 | 1014.4 |
| 20260830104606 | 72 | 174 | 0.0 | 0.0 | 0.00 | 0.00 | 0.00 | 87 | 1014.2 |
| 20260830103013 | 72 | 212 | 0.0 | 0.0 | 0.00 | 0.00 | 0.00 | 87 | 1014.2 |
| 20260830101528 | 72 | 146 | 0.0 | 0.0 | 0.00 | 0.00 | 0.00 | 87 | 1014.4 |
| 20260830100044 | 73 | 148 | 0.0 | 0.0 | 0.00 | 0.00 | 0.00 | 86 | 1014.2 |
| 20260830094509 | 74 | 163 | 0.0 | 0.0 | 0.00 | 0.00 | 0.00 | 86 | 1014.3 |
| 20260830093043 | 74 | 167 | 0.0 | 0.0 | 0.00 | 0.00 | 0.00 | 86 | 1014.3 |
| 20260830091550 | 74 | 165 | 0.0 | 0.0 | 0.00 | 0.00 | 0.00 | 86 | 1014.2 |
| 20260830084515 | 74 | 143 | 0.0 | 0.0 | 0.00 | 0.00 | 0.00 | 85 | 1014.2 |
| 20260830083041 | 74 | 153 | 0.0 | 0.0 | 0.00 | 0.00 | 0.00 | 85 | 1014.4 |
| 20260830081549 | 75 | 176 | 0.0 | 1.0 | 0.00 | 0.00 | 0.00 | 84 | 1014.3 |